Location: *
(42.5628°N, 2.3633°E)
Time: 03:02:16
(UTC+00:00)

Cosmos 371 Rocket - Pass Details

Date: 30 March 2020
Orbit: 683 x 700 km, 74.0° (Epoch: 31 May)

Event Time Altitude Azimuth Distance (km) Brightness Sun altitude
Rises 18:55:45 0° 334° (NNW) 3,061 7.2 -8.3°
Reaches altitude 10° 18:58:07 10° 329° (NNW) 2,143 6.5 -8.7°
Maximum altitude 19:02:44 48° 256° (WSW) 904 4.4 -9.5°
Drops below altitude 10° 19:07:22 10° 182° (S) 2,137 5.7 -10.3°
Sets 19:09:43 0° 177° (S) 3,052 6.4 -10.8°
